Eugene, OR

11:39 PM PST on November 16, 2019 (GMT -0800)
Mahlon Sweet

Weather History for KEUG - August, 2019

Change the Weather History Date:

Sunday, August 18, 2019

  Actual Average Record
Temperature  
Mean Temperature 67 °F 67 °F  
Max Temperature 86 °F 83 °F 98 °F (1950)
Min Temperature 48 °F 51 °F 38 °F (1914)
Degree Days  
Heating Degree Days 0 1  
Month to date heating degree days 0 18  
Since 1 June heating degree days 85 211  
Since 1 July heating degree days 10 54  
Cooling Degree Days 2 3  
Month to date cooling degree days 88 63  
Year to date cooling degree days 238 180  
Since 1 June cooling degree days 237 175  
Growing Degree Days 17 (Base 50)    
Moisture  
Dew Point 53 °F    
Average Humidity 63    
Maximum Humidity 93    
Minimum Humidity 32    
Precipitation  
Precipitation 0.00 in 0.02 in 0.46 in (1979)
Month to date precipitation 0.07 0.26  
Year to date precipitation 22.72 25.66  
Sea Level Pressure  
Sea Level Pressure 29.87 in    
Wind  
Wind Speed 6 mph (North)    
Max Wind Speed 13 mph    
Max Gust Speed 18 mph    
Visibility 10 miles    
Events      
T = Trace of Precipitation, MM = Missing Value Source: NWS Daily Summary

Daily Weather History Graph

Daily Weather History Graph

Search for Another Location

Airport or City:

Astronomy

Aug. 18, 2019 Rise Set
Actual Time 6:19 AM PDT 8:12 PM PDT
Civil Twilight 5:48 AM PDT 8:43 PM PDT
Nautical Twilight 5:10 AM PDT 9:21 PM PDT
Astronomical Twilight 4:29 AM PDT 10:02 PM PDT
Moon 10:04 PM PDT (8/18) 9:14 AM PDT (8/18)
Length of Visible Light 14h 55m
Length of Day
13h 53m
Waning Gibbous, 91% of the Moon is Illuminated
Aug 18
Waning Gibbous
Aug 23
Last Quarter
Aug 30
New
Sep 5
First Quarter
Sep 13
Full

Hourly Weather History & Observations

Time (PDT) Temp. Heat Index Dew Point Humidity Pressure Visibility Wind Dir Wind Speed Gust Speed Precip Events Conditions
12:54 AM 60.1 °F - 52.0 °F 75% 29.90 in 10.0 mi North 4.6 mph - N/A   Clear
1:54 AM 57.0 °F - 52.0 °F 83% 29.89 in 10.0 mi NE 4.6 mph - N/A   Clear
2:54 AM 57.0 °F - 52.0 °F 83% 29.88 in 10.0 mi North 5.8 mph - N/A   Clear
3:54 AM 54.0 °F - 50.0 °F 86% 29.88 in 10.0 mi NNW 5.8 mph - N/A   Clear
4:54 AM 53.1 °F - 48.9 °F 86% 29.88 in 10.0 mi North 3.5 mph - N/A   Clear
5:54 AM 53.1 °F - 50.0 °F 89% 29.87 in 10.0 mi NW 6.9 mph - N/A   Partly Cloudy
6:54 AM 53.1 °F - 51.1 °F 93% 29.88 in 10.0 mi Calm Calm - N/A   Partly Cloudy
7:54 AM 59.0 °F - 54.0 °F 83% 29.89 in 10.0 mi Calm Calm - N/A   Partly Cloudy
8:54 AM 64.0 °F - 54.0 °F 70% 29.89 in 10.0 mi NNE 9.2 mph - N/A   Scattered Clouds
9:54 AM 68.0 °F - 55.0 °F 63% 29.89 in 10.0 mi NNE 9.2 mph - N/A   Scattered Clouds
10:54 AM 70.0 °F - 54.0 °F 57% 29.89 in 10.0 mi North 5.8 mph - N/A   Scattered Clouds
11:54 AM 73.0 °F - 54.0 °F 51% 29.88 in 10.0 mi NNW 5.8 mph - N/A   Partly Cloudy
12:54 PM 75.9 °F - 54.0 °F 46% 29.87 in 10.0 mi NNW 8.1 mph - N/A   Partly Cloudy
1:54 PM 80.1 °F 80.0 °F 54.0 °F 40% 29.86 in 10.0 mi North 10.4 mph - N/A   Clear
2:54 PM 82.0 °F - 52.0 °F 35% 29.84 in 10.0 mi Variable 3.5 mph - N/A   Clear
3:54 PM 82.9 °F 81.8 °F 53.1 °F 36% 29.83 in 10.0 mi Variable 6.9 mph - N/A   Clear
4:54 PM 84.0 °F 82.5 °F 53.1 °F 34% 29.82 in 10.0 mi NNW 8.1 mph - N/A   Partly Cloudy
5:54 PM 84.0 °F - 52.0 °F 33% 29.81 in 10.0 mi North 8.1 mph - N/A   Partly Cloudy
6:54 PM 82.9 °F 81.8 °F 53.1 °F 36% 29.81 in 10.0 mi NNE 5.8 mph - N/A   Clear
7:54 PM 77.0 °F - 52.0 °F 42% 29.82 in 10.0 mi NNE 4.6 mph - N/A   Clear
8:54 PM 72.0 °F - 55.0 °F 55% 29.85 in 10.0 mi WNW 8.1 mph - N/A   Clear
9:54 PM 66.0 °F - 54.0 °F 65% 29.88 in 10.0 mi Variable 3.5 mph - N/A   Clear
10:54 PM 64.0 °F - 54.0 °F 70% 29.89 in 10.0 mi SW 4.6 mph - N/A   Clear
11:54 PM 62.1 °F - 54.0 °F 75% 29.91 in 10.0 mi SW 4.6 mph - N/A   Clear